Location: Aldenham
(51.6667°N, 0.3500°W)
Time: 06:24:08
(UTC+00:00)

Injun/Solrad 3 - Visible Passes

Search period start: 18 February 2026 00:00
Search period end: 28 February 2026 00:00
Orbit: 873 x 983 km, 66.8° (Epoch: 17 February)

Date Brightness Start Highest point End Pass type
(mag) Time Alt. Az. Time Alt. Az. Time Alt. Az.
18 Feb 8.4 18:15:41 10° NNW 18:21:28 43° NE 18:27:14 11° ESE visible
18 Feb 8.4 20:02:12 10° NW 20:08:12 57° WSW 20:10:55 33° S visible
18 Feb 10.4 21:51:28 10° W 21:53:28 12° W 21:54:37 11° WSW visible
19 Feb 8.1 18:26:42 10° NW 18:32:43 55° NE 18:38:51 10° ESE visible
19 Feb 9.0 20:13:24 10° NW 20:19:06 40° WSW 20:22:36 22° S visible
20 Feb 7.9 18:37:43 10° NW 18:43:52 72° NE 18:50:09 10° SE visible
20 Feb 9.6 20:24:45 10° NW 20:29:55 29° WSW 20:34:28 13° SSW visible
21 Feb 8.0 18:48:46 10° NW 18:54:56 85° SW 19:01:16 10° SSE visible
21 Feb 10.1 20:36:19 10° WNW 20:40:39 20° WSW 20:45:04 10° SSW visible
22 Feb 8.4 18:59:52 10° NW 19:05:56 63° WSW 19:12:09 10° SSE visible
22 Feb 10.5 20:48:27 10° WNW 20:51:19 14° WSW 20:54:12 10° SW visible
23 Feb 9.0 19:11:02 10° NW 19:16:52 45° WSW 19:22:49 10° S visible
24 Feb 9.6 19:22:19 10° NW 19:27:42 32° WSW 19:33:12 10° S visible
25 Feb 10.2 19:33:48 10° WNW 19:38:28 23° WSW 19:43:13 10° SSW visible
26 Feb 8.4 17:57:32 10° NW 18:03:40 70° WSW 18:09:56 10° SSE visible
26 Feb 10.7 19:45:40 10° WNW 19:49:09 16° WSW 19:52:40 10° SW visible
27 Feb 9.0 18:08:40 10° NW 18:14:36 51° WSW 18:20:41 10° SSE visible
